Location: Unspecified
(57.6483°N, 3.3184°W)
Time: 17:25:01
(UTC+01:00)

AIST 2D - Visible Passes

Search period start: 14 May 2021 00:00
Search period end: 24 May 2021 00:00
Orbit: 449 x 466 km, 97.1° (Epoch: 14 May)

Date Brightness Start Highest point End Pass type
(mag) Time Alt. Az. Time Alt. Az. Time Alt. Az.
14 May ? 01:11:27 10° NNW 01:13:31 15° NW 01:15:34 10° W visible
14 May ? 23:05:05 10° NNE 23:08:16 35° E 23:10:50 14° SSE visible
15 May ? 00:38:12 10° N 00:41:08 27° WNW 00:44:04 10° WSW visible
15 May ? 22:32:59 10° NE 22:35:23 18° E 22:37:45 10° SE visible
16 May ? 00:05:17 10° N 00:08:37 54° WNW 00:11:45 11° SSW visible
16 May ? 23:32:35 10° NNE 23:35:59 68° ESE 23:38:52 14° S visible
17 May ? 01:06:18 10° NNW 01:08:33 17° WNW 01:10:46 10° W visible
17 May ? 23:00:06 10° NNE 23:03:12 31° E 23:05:58 12° SSE visible
18 May ? 00:33:06 10° N 00:36:08 30° WNW 00:39:08 10° SW visible
18 May ? 22:28:05 10° NE 22:30:17 16° E 22:32:28 10° SE visible
19 May ? 00:00:12 10° N 00:03:35 61° WNW 00:06:52 11° SSW visible
19 May ? 01:35:15 10° NW 01:35:51 10° NW 01:36:26 10° WNW visible
19 May ? 23:27:31 10° NNE 23:30:55 61° ESE 23:33:58 12° S visible
20 May ? 01:01:07 10° NNW 01:03:31 18° WNW 01:05:54 10° WSW visible
20 May ? 22:55:05 10° NNE 22:58:05 28° E 23:01:02 10° SSE visible
21 May ? 00:27:58 10° N 00:31:04 33° WNW 00:34:10 10° SW visible
21 May ? 23:55:05 10° N 23:58:29 69° WNW 00:01:53 10° SSW visible
22 May ? 01:29:42 10° NNW 01:30:48 11° NW 01:31:54 10° WNW visible
22 May ? 23:22:25 10° NNE 23:25:47 53° ESE 23:28:59 11° S visible
23 May ? 00:55:54 10° NNW 00:58:26 20° WNW 01:00:57 10° WSW visible
23 May ? 22:50:01 10° NE 22:52:55 25° E 22:55:49 10° SSE visible
